Other Public Products
Issued by NWS Grand Forks, ND

Home | Current Version | Previous Version | Text Only | Print | Product List | Glossary On
Versions: 1 2 3 4 5 6 7 8 9 10 11 12 13 14 15 16 17 18 19 20 21 22 23 24 25 26 27 28 29 30 31 32 33 34 35 36 37 38 39 40 41 42 43 44 45 46 47 48 49 50
000
FPUS83 KFGF 042331
OPUFGF
PRAIRIE TO PINES WEATHER ROUNDUP
NATIONAL WEATHER SERVICE EASTERN NORTH DAKOTA/GRAND FORKS ND
600 PM CDT WED MAY 04 2016

 **SATELLITE DATA USED TO AUGMENT SKY COVER AT AUTOMATED STATIONS**
 *****  WEATHER ACROSS EASTERN NORTH DAKOTA  *****

CITY           SKY/WX    TMP DP  RH WIND       PRES   REMARKS
GRAND FORKS    MOSUNNY   71  30  21 S3        29.96F
GRAND FORKS AF MOSUNNY   70  27  19 VRB3      29.97F
GRAND CITY NWS NOT AVBL
BUXTON           N/A     72  30  21 NW3         N/A
DEVILS LAKE    CLOUDY    72  38  29 SE8       29.96F
FARGO          SUNNY     70  26  19 N7        29.98S
WAHPETON ARPT  CLEAR     68  23  18 NW10      29.99S
$$

 *****  WEATHER ACROSS CENTRAL AND WESTERN NORTH DAKOTA  *****

CITY           SKY/WX    TMP DP  RH WIND       PRES   REMARKS
JAMESTOWN      SUNNY     73  36  25 NW5       29.98F
BISMARCK       SUNNY     80  43  26 MISG      29.97F
MINOT          SUNNY     88  36  15 SW12      29.89F
MINOT AFB      MOSUNNY   85  39  19 W10       29.88S
GARRISON         N/A     82  40  22 S8        29.93F
WILLISTON      SUNNY     84  36  18 SW14      29.89F
DICKINSON      SUNNY     79  35  20 SW13      29.95F
HETTINGER      SUNNY     77  41  27 S12       30.01F
$$

 *****  OTHER OBSERVATIONS NORTHEAST NORTH DAKOTA  *****

CITY           SKY/WX    TMP DP  RH WIND       PRES   REMARKS
WALHALLA       FAIR      75  36  23 SW5       29.92F
LANGDON        FAIR      73  36  25 W9        29.95F
CAVALIER       FAIR      73  34  23 S9        29.93F
GRAFTON        FAIR      72  30  21 SW5       29.97F
CANDO          FAIR      75  36  23 S12       29.95F
FORT TOTTEN    NOT AVBL
ROLLA          FAIR      77  36  22 SW12      29.93F
RUGBY          FAIR      81  39  22 S13       29.91F
 ***** THE ABOVE OBSERVATIONS ARE NON NWS ARE NOT QUALITY
        CONTROLLED AND MAY MIS-REPORT RAIN FOR SNOW...
$$

 *****  OTHER OBSERVATIONS SOUTHEAST NORTH DAKOTA *****

CITY           SKY/WX    TMP DP  RH WIND       PRES   REMARKS
COOPERSTOWN    NOT AVBL
VALLEY CITY    FAIR      68  28  22 N3        30.01S
OAKES            N/A    N/A N/A N/A MISG        N/A
GWINNER        FAIR      72  28  20 NW10      30.00S
SHEYENNE NWR     N/A     72  29  20 N3        29.95S
BUFFALO          N/A     71  24  17 NW5         N/A
WYNDMERE         N/A     70  28  21 N7          N/A
 ***** THE ABOVE OBSERVATIONS ARE NON NWS ARE NOT QUALITY
       CONTROLLED AND MAY MIS-REPORT RAIN FOR SNOW...
$$

  *****  WEATHER ACROSS NORTHERN MINNESOTA  *****

CITY           SKY/WX    TMP DP  RH WIND       PRES   REMARKS
FLAG ISLAND    CLOUDY    48  37  66 S7        29.96F
WARROAD        SUNNY     55  32  41 E6        29.98F
ROSEAU         SUNNY     66  25  20 W6        29.97F
HALLOCK        MOSUNNY   70  18  13 CALM      29.95F
THF RVR FALLS  MOSUNNY   66  28  24 NW6       29.99S
HALSTAD        NOT AVBL
FOSSTON        SUNNY     68  21  17 N5        29.99S
BAUDETTE       SUNNY     61  17  18 N7        29.99F
WASKISH        SUNNY     63  21  20 NW5       29.99S
CROOKSTON      SUNNY     68  28  22 CALM      29.98S
$$
  *****  WEATHER ACROSS CENTRAL AND WEST MINNESOTA  *****

CITY           SKY/WX    TMP DP  RH WIND       PRES   REMARKS
BEMIDJI        SUNNY     62  20  20 N7        29.99S
PARK RAPIDS    SUNNY     68  25  19 N9        29.97S
WADENA         SUNNY     66  30  26 N9        29.97S
DETROIT LAKES  SUNNY     64  25  22 N5        30.00S
MOORHEAD       SUNNY     70  25  18 NW5       29.99S
FERGUS FALLS   SUNNY     66  32  28 N8        29.96S
ELBOW LAKE     FAIR      65  33  29 W12       29.99S
MORRIS MN      SUNNY     70  30  23 N15G22    29.98S
STAPLES        SUNNY     64  18  16 NE7       29.97S
WHEATON        SUNNY     70  34  26 NW10      30.00F
$$
  *****  WEATHER ELSEWHERE ACROSS MINNESOTA  *****

CITY           SKY/WX    TMP DP  RH WIND       PRES   REMARKS
DULUTH         SUNNY     54  27  35 SE13      29.96R
INTRNTL FALLS  SUNNY     60  19  20 E8        29.97F
ELY            SUNNY     57  16  19 NE8       29.96S
CLOQUET        SUNNY     59  23  25 E5        29.95S
BRAINERD       SUNNY     63  22  20 N13       29.98R
HIBBING        SUNNY     60  15  17 N7        29.95S
ALEXANDRIA     SUNNY     66  24  20 NW14      29.99S
SAINT CLOUD    SUNNY     66  21  18 N12G18    29.96R
MINNEAPOLIS    SUNNY     65  25  22 N13       29.94S
$$

  *****  WEATHER ACROSS SOUTH DAKOTA  *****

CITY           SKY/WX    TMP DP  RH WIND       PRES   REMARKS
SIOUX FALLS    SUNNY     68  33  27 NW15      30.00S
BROOKINGS      SUNNY     67  32  27 N12       30.00F
WATERTOWN      SUNNY     68  27  21 N12       30.01F
HURON          SUNNY     71  34  25 NW10      30.02F
SISSETON         N/A     70  25  18 N9G18     29.99F
ABERDEEN       SUNNY     75  33  21 N9        30.01F
MITCHELL       SUNNY     70  34  26 NW10      30.04F
PIERRE         SUNNY     73  36  25 SW3       30.03F
MOBRIDGE       SUNNY     76  43  30 SE8       29.99F
RAPID CITY     SUNNY     75  42  30 S14       30.04F
$$

  *****  SOME WEATHER IN NEARBY STATES *****

CITY           SKY/WX    TMP DP  RH WIND       PRES   REMARKS
GLASGOW MT     SUNNY     85  38  18 SW7       29.85F
GREAT FALLS MT SUNNY     80  31  16 SW13      29.89F
CHEYENNE WY    SUNNY     72  26  18 N6        30.17F
SCOTTSBLUFF NE SUNNY     76  39  26 SE6       30.09F
OMAHA NE       MOSUNNY   69  38  32 N13       30.00S
DES MOINES IA  MOSUNNY   67  30  25 NW18G30   29.94F
DAVENPORT IA   MOSUNNY   62  33  33 N21       29.86S
CHICAGO IL     CLOUDY    49  38  65 NE12      29.82R
EAU CLAIRE WI  SUNNY     63  17  17 N12G22    29.91R
LA CROSSE WI   SUNNY     65  24  21 N17       29.88R
$$

  *****  SOME NATIONAL WEATHER *****

CITY           SKY/WX    TMP DP  RH WIND       PRES   REMARKS
LA GUARDIA NY  DRIZZLE   51  49  92 NE8       29.73R
RALEIGH NC     MOSUNNY   70  49  47 W5        29.62S
ATLANTA GA     MOSUNNY   69  42  37 W14       29.71S
NEW ORLEANS LA MOSUNNY   77  49  37 NW12      29.87S
OKLAHOMA CITY  SUNNY     78  44  29 N16       30.00S
ALBUQUERQUE NM MOSUNNY   76  19  11 SW12      30.18F
SALT LAKE CITY PTSUNNY   82  29  14 S15G21    29.98F
LOS ANGELES CA MOSUNNY   64  53  67 W12       29.91F
BOISE ID       CLOUDY    82  33  17 SE7       29.84F
SEATTLE WA     CLOUDY    57  47  69 N9        30.03F
$$

*** WEATHER ACROSS MANITOBA...SASKATCHEWAN AND ONTARIO ***
                ***ONTARIO***

CITY           SKY/WX    TMP DP  RH WIND       PRES   REMARKS
GERALDTON      CLOUDY    37  32  81 N10       29.99R
THUNDER BAY    MOSUNNY   55  30  38 SE12      29.95R
SIOUX LOOKOUT  PTSUNNY   55  16  21 NW3       29.96F
TORONTO        CLOUDY    57  36  44 E14       29.70R
BIG TROUT LK   PTSUNNY   46  16  29 SE5       29.88F
PICKLE LAKE    PTSUNNY   54   7  15 VRB2      29.93F
DRYDEN         SUNNY     59  14  17 VRB3      29.96F
KENORA         PTSUNNY   61  18  18 SW8       29.98S
$$
                *** MANITOBA***

CITY           SKY/WX    TMP DP  RH WIND       PRES   REMARKS
BRANDON        PTSUNNY   82  39  21 S10       29.85F
DAUPHIN        SUNNY     84  41  21 SW10G17   29.76F
ISLAND LAKE    CLOUDY    54  30  40 SW8       29.80R
PILOT MOUND      N/A     77  32  19 SW13G18     N/A
THE PAS        CLOUDY    81  48  32 SE13      29.63F
THOMPSON       MOSUNNY   68  39  34 S8        29.64F
WINNIPEG       PTSUNNY   70  30  23 S12G18    29.92F
LYNN LAKE      SUNNY     79  41  25 NW6       29.60S
CHURCHILL      MOSUNNY   48  32  53 S10       29.62F
GILLAM         SUNNY     63  34  34 SW20G26   29.65F
$$
                ***SASKATCHEWAN***

CITY           SKY/WX    TMP DP  RH WIND       PRES   REMARKS
ESTEVAN        PTSUNNY   84  39  20 SW20G26   29.86F
KINDERSLEY     MOSUNNY   86  32  14 W17G24    29.76F
LLOYDMINSTER   MOSUNNY   81  32  17 W14       29.72
PRINCE ALBERT  MOSUNNY   90  36  14 SW10G17   29.62F
REGINA         MOSUNNY   86  34  15 W13G26    29.78F
YORKTON        SUNNY     86  32  14 SW17G25   29.75F   C1F1C2F2C3F3C4F4C5F5C6F6C7F7C8F8C9F9CaFaCbFbCcFcCdFdCe!


USA.gov is the U.S. government's official web portal to all federal, state and local government web resources and services.